When you browse on this site, cookies collect data to enhance your experience and personalize the content and advertising you see.
Visit our Privacy Policy to learn more. By continuing to use the site, you agree to this use of cookies and data.
  • In Czech Republic
  • List of Countries
  • For 7 days
  • Water Temperature
  • Weather Map
  • Weather Widgets
  • user-avatar
    Login

    Hourly Weather Chiriguana

    Today, 22 November, Friday

    Time Temperature Precipitation Wind Pressure Humidity
    00:00 +23°C° 0 mm 0 mps 755 mmHg 96%
    01:00 +22°C° 0 mm 0 mps 755 mmHg 95%
    02:00 +22°C° 0 mm 0 mps 755 mmHg 95%
    03:00 +22°C° 0 mm 0 mps 755 mmHg 95%
    04:00 +22°C° 0 mm 0 mps 755 mmHg 95%
    05:00 +22°C° 0 mm 0 mps 755 mmHg 94%
    06:00 +23°C° 0 mm 0 mps 755 mmHg 94%
    07:00 +23°C° 0 mm 0 mps 756 mmHg 93%
    08:00 +25°C° 0.1 mm 0 mps 756 mmHg 88%
    09:00 +29°C° 0.1 mm 1 mps 756 mmHg 82%
    10:00 +30°C° 0.1 mm 1 mps 756 mmHg 77%
    11:00 +31°C° 0.7 mm 1 mps 756 mmHg 76%
    12:00 +31°C° 0.7 mm 1 mps 755 mmHg 75%
    13:00 +32°C° 0.7 mm 1 mps 754 mmHg 74%
    14:00 +30°C° 0.7 mm 0 mps 753 mmHg 76%
    15:00 +29°C° 0.7 mm 0 mps 753 mmHg 78%
    16:00 +29°C° 0.7 mm 0 mps 752 mmHg 79%
    17:00 +27°C° 1.1 mm 0 mps 753 mmHg 84%
    18:00 +26°C° 1.1 mm 0 mps 754 mmHg 90%
    19:00 +26°C° 1.1 mm 1 mps 754 mmHg 95%
    20:00 +26°C° 0.8 mm 1 mps 755 mmHg 95%
    21:00 +25°C° 0.8 mm 1 mps 755 mmHg 96%
    22:00 +25°C° 0.8 mm 1 mps 756 mmHg 96%
    23:00 +25°C° 0 mm 1 mps 755 mmHg 96%

    Tomorrow, 23 November, Saturday

    Time Temperature Precipitation Wind Pressure Humidity
    00:00 +25°C° 0 mm 1 mps 755 mmHg 96%
    01:00 +22°C° 0 mm 0 mps 755 mmHg 96%
    02:00 +22°C° 0 mm 0 mps 755 mmHg 96%
    03:00 +22°C° 0 mm 0 mps 754 mmHg 96%
    04:00 +22°C° 0 mm 0 mps 754 mmHg 96%
    05:00 +22°C° 0 mm 0 mps 755 mmHg 95%
    06:00 +23°C° 0 mm 0 mps 755 mmHg 94%
    07:00 +23°C° 0 mm 0 mps 756 mmHg 94%
    08:00 +25°C° 0 mm 0 mps 756 mmHg 85%
    09:00 +28°C° 0 mm 0 mps 756 mmHg 77%
    10:00 +32°C° 0 mm 1 mps 756 mmHg 68%
    11:00 +30°C° 0.2 mm 0 mps 755 mmHg 67%
    12:00 +31°C° 0.2 mm 0 mps 755 mmHg 67%
    13:00 +31°C° 0.2 mm 0 mps 754 mmHg 66%
    14:00 +30°C° 0.6 mm 0 mps 753 mmHg 73%
    15:00 +30°C° 0.6 mm 0 mps 753 mmHg 80%
    16:00 +29°C° 0.6 mm 0 mps 753 mmHg 88%
    17:00 +27°C° 0.4 mm 0 mps 753 mmHg 90%
    18:00 +26°C° 0.4 mm 0 mps 754 mmHg 92%
    19:00 +26°C° 0.4 mm 1 mps 754 mmHg 95%
    20:00 +26°C° 0.7 mm 1 mps 755 mmHg 95%
    21:00 +26°C° 0.7 mm 1 mps 755 mmHg 95%
    22:00 +25°C° 0.7 mm 1 mps 755 mmHg 96%
    23:00 +25°C° 0 mm 1 mps 755 mmHg 95%

    Day after tomorrow, 24 November, Sunday

    Time Temperature Precipitation Wind Pressure Humidity
    00:00 +25°C° 0 mm 1 mps 755 mmHg 95%
    01:00 +23°C° 0 mm 0 mps 755 mmHg 95%
    02:00 +22°C° 0 mm 0 mps 755 mmHg 95%
    03:00 +22°C° 0 mm 0 mps 754 mmHg 95%
    04:00 +22°C° 0 mm 0 mps 754 mmHg 96%
    05:00 +23°C° 0 mm 0 mps 755 mmHg 95%
    06:00 +23°C° 0 mm 0 mps 755 mmHg 94%
    07:00 +23°C° 0 mm 0 mps 756 mmHg 93%
    08:00 +25°C° 0 mm 0 mps 756 mmHg 86%
    09:00 +27°C° 0 mm 0 mps 756 mmHg 78%
    10:00 +30°C° 0 mm 0 mps 756 mmHg 70%
    11:00 +32°C° 0.1 mm 1 mps 755 mmHg 68%
    12:00 +33°C° 0.1 mm 1 mps 754 mmHg 66%
    13:00 +33°C° 0.1 mm 1 mps 753 mmHg 64%
    14:00 +33°C° 0.3 mm 1 mps 752 mmHg 69%
    15:00 +32°C° 0.3 mm 1 mps 752 mmHg 74%
    16:00 +29°C° 0.3 mm 0 mps 752 mmHg 78%
    17:00 +30°C° 0.4 mm 1 mps 752 mmHg 83%
    18:00 +28°C° 0.4 mm 1 mps 753 mmHg 88%
    19:00 +27°C° 0.4 mm 1 mps 753 mmHg 92%
    20:00 +26°C° 0.1 mm 1 mps 753 mmHg 93%
    21:00 +26°C° 0.1 mm 1 mps 754 mmHg 94%
    22:00 +25°C° 0.1 mm 1 mps 754 mmHg 94%
    23:00 +25°C° 0 mm 1 mps 754 mmHg 94%

    25 November, Monday

    Time Temperature Precipitation Wind Pressure Humidity
    00:00 +25°C° 0 mm 1 mps 754 mmHg 95%
    01:00 +23°C° 0 mm 0 mps 754 mmHg 95%
    02:00 +22°C° 0 mm 0 mps 753 mmHg 95%
    03:00 +22°C° 0 mm 0 mps 753 mmHg 95%
    04:00 +22°C° 0 mm 0 mps 753 mmHg 95%
    05:00 +23°C° 0 mm 0 mps 754 mmHg 94%
    06:00 +23°C° 0 mm 0 mps 754 mmHg 93%
    07:00 +24°C° 0 mm 0 mps 754 mmHg 92%
    08:00 +26°C° 0 mm 0 mps 754 mmHg 84%
    09:00 +28°C° 0 mm 0 mps 754 mmHg 76%
    10:00 +30°C° 0 mm 0 mps 754 mmHg 69%
    11:00 +31°C° 0.1 mm 0 mps 753 mmHg 67%
    12:00 +33°C° 0.1 mm 1 mps 752 mmHg 66%
    13:00 +34°C° 0.1 mm 1 mps 752 mmHg 64%
    14:00 +33°C° 0.2 mm 1 mps 751 mmHg 69%
    15:00 +33°C° 0.2 mm 1 mps 751 mmHg 73%
    16:00 +32°C° 0.2 mm 1 mps 751 mmHg 78%
    17:00 +30°C° 0.5 mm 1 mps 751 mmHg 83%
    18:00 +29°C° 0.5 mm 1 mps 751 mmHg 89%
    19:00 +27°C° 0.5 mm 1 mps 752 mmHg 94%
    20:00 +26°C° 0 mm 1 mps 752 mmHg 94%
    21:00 +26°C° 0 mm 1 mps 753 mmHg 95%
    22:00 +26°C° 0 mm 1 mps 753 mmHg 95%
    23:00 +25°C° 0 mm 1 mps 753 mmHg 95%

    26 November, Tuesday

    Time Temperature Precipitation Wind Pressure Humidity
    00:00 +23°C° 0 mm 0 mps 753 mmHg 95%
    01:00 +23°C° 0 mm 0 mps 752 mmHg 95%
    02:00 +23°C° 0 mm 0 mps 752 mmHg 95%
    03:00 +23°C° 0 mm 0 mps 752 mmHg 95%
    04:00 +23°C° 0 mm 0 mps 752 mmHg 95%
    05:00 +23°C° 0 mm 0 mps 753 mmHg 94%
    06:00 +24°C° 0 mm 0 mps 753 mmHg 93%
    07:00 +24°C° 0 mm 0 mps 754 mmHg 93%
    08:00 +26°C° 0 mm 0 mps 754 mmHg 84%
    09:00 +30°C° 0 mm 1 mps 754 mmHg 75%
    10:00 +32°C° 0 mm 1 mps 754 mmHg 67%
    11:00 +33°C° 0 mm 1 mps 753 mmHg 65%
    12:00 +34°C° 0 mm 1 mps 753 mmHg 63%
    13:00 +34°C° 0 mm 1 mps 752 mmHg 61%
    14:00 +34°C° 0.1 mm 1 mps 751 mmHg 66%
    15:00 +33°C° 0.1 mm 1 mps 751 mmHg 70%
    16:00 +33°C° 0.1 mm 1 mps 751 mmHg 74%
    17:00 +31°C° 0.2 mm 1 mps 751 mmHg 80%
    18:00 +29°C° 0.2 mm 1 mps 752 mmHg 86%
    19:00 +26°C° 0.2 mm 0 mps 752 mmHg 92%
    20:00 +27°C° 0 mm 1 mps 753 mmHg 92%
    21:00 +27°C° 0 mm 1 mps 753 mmHg 92%
    22:00 +27°C° 0 mm 1 mps 753 mmHg 92%
    23:00 +27°C° 0 mm 1 mps 753 mmHg 92%

    27 November, Wednesday

    Time Temperature Precipitation Wind Pressure Humidity
    00:00 +26°C° 0 mm 1 mps 753 mmHg 92%
    01:00 +24°C° 0 mm 0 mps 753 mmHg 91%
    02:00 +24°C° 0 mm 0 mps 753 mmHg 92%
    03:00 +24°C° 0 mm 0 mps 753 mmHg 92%
    04:00 +23°C° 0 mm 0 mps 752 mmHg 92%
    05:00 +24°C° 0 mm 0 mps 753 mmHg 91%
    06:00 +24°C° 0 mm 0 mps 753 mmHg 90%
    07:00 +25°C° 0 mm 0 mps 754 mmHg 89%
    08:00 +27°C° 0 mm 0 mps 754 mmHg 81%
    09:00 +31°C° 0 mm 1 mps 754 mmHg 73%
    10:00 +33°C° 0 mm 1 mps 754 mmHg 65%
    11:00 +34°C° 0 mm 1 mps 754 mmHg 63%
    12:00 +35°C° 0 mm 1 mps 753 mmHg 60%
    13:00 +36°C° 0 mm 1 mps 752 mmHg 58%
    14:00 +35°C° 0.1 mm 1 mps 752 mmHg 64%
    15:00 +34°C° 0.1 mm 1 mps 751 mmHg 69%
    16:00 +34°C° 0.1 mm 1 mps 751 mmHg 74%
    17:00 +32°C° 0.3 mm 1 mps 751 mmHg 80%
    18:00 +30°C° 0.3 mm 1 mps 752 mmHg 86%
    19:00 +28°C° 0.3 mm 1 mps 752 mmHg 92%
    20:00 +28°C° 0.3 mm 1 mps 753 mmHg 92%
    21:00 +27°C° 0.3 mm 1 mps 753 mmHg 92%
    22:00 +27°C° 0.3 mm 1 mps 754 mmHg 91%
    23:00 +26°C° 0 mm 1 mps 753 mmHg 90%
    Show more